Regional Weather Roundup
Issued by NWS

Home | Current Version | Previous Version | Graphics & Text | Print | Product List | Glossary On
Versions: 1 2 3 4 5 6 7 8 9 10 11 12 13 14 15 16 17 18 19 20 21 22 23 24 25 26 27 28 29 30 31 32 33 34 35 36 37 38 39 40 41 42 43 44 45 46 47 48 49 50
000
ASUS45 KCYS 220910
RWRWY

WYOMING REGIONAL WEATHER ROUNDUP
NATIONAL WEATHER SERVICE CHEYENNE WY
300 AM MDT TUE MAY 22 2018

NOTE:  "FAIR" INDICATES FEW OR NO CLOUDS BELOW 12,000 FEET
WITH NO SIGNIFICANT WEATHER AND/OR OBSTRUCTIONS TO VISIBILITY.

WYZ001-221000-
YELLOWSTONE NATIONAL PARK

CITY           SKY/WX    TMP DP  RH WIND       PRES   REMARKS
LK YELLOWSTONE   N/A     32  30  92 NW3       30.14F
W YELLOWSTONE  NOT AVBL

$$
WYZ002>013-054>058-071-098>099-221000-
NORTHERN WYOMING

CITY           SKY/WX    TMP DP  RH WIND       PRES   REMARKS
JACKSON        FAIR      42  38  85 N6        30.07F
CODY           FAIR      47  43  86 S3        30.02S
GREYBULL       FAIR      52  47  83 CALM      29.94S
WORLAND        FAIR      47  46  97 S7        29.96S
SHERIDAN       FAIR      48  46  93 CALM      29.96F
BUFFALO        FAIR      51  43  74 CALM      30.00F
GILLETTE       FAIR      51  45  79 SW5       29.97R
NEWCASTLE      FAIR      54  39  58 N8        29.94R

$$
WYZ014>020-022>026-101>103-221000-
CENTRAL WYOMING

CITY           SKY/WX    TMP DP  RH WIND       PRES   REMARKS
BIG PINEY      FAIR      41  37  86 CALM      30.05F
PINEDALE       FAIR      39  36  87 CALM      30.06S
DUBOIS         FAIR      37  32  81 W9        30.08S WCI  31
LANDER         FAIR      49  42  77 E3        29.99S
RIVERTON       FAIR      48  43  82 NW9       30.00S
CASPER         FAIR      46  44  93 CALM      29.98F
DOUGLAS        FAIR      48  46  93 CALM      29.98F

$$
WYZ021-027>030-104>119-221000-
SOUTHERN WYOMING

CITY           SKY/WX    TMP DP  RH WIND       PRES   REMARKS
EVANSTON       FAIR      48  38  68 N7        30.02F
KEMMERER       FAIR      41  34  75 N12       30.05F
FORT BRIDGER   FAIR      47  37  69 N5        30.06F
ROCK SPRINGS   FAIR      50  39  66 NE7       30.02F
DIXON          FAIR      45  31  58 CALM      30.02S
RAWLINS        FAIR      51  42  71 NE12      30.02S
SARATOGA       FAIR      41  34  75 CALM      30.03F
LARAMIE        FAIR      45  41  86 SE12      30.05F
CHEYENNE       FAIR      47  46  97 W6        30.03S
TORRINGTON     FAIR      52  51  97 SW3       29.94S
PINE BLUFFS    FAIR      46  46 100 CALM      29.98S

$$



USA.gov is the U.S. government's official web portal to all federal, state and local government web resources and services.